Regional Weather Roundup
Issued by NWS Green Bay, WI

Home | Current Version | Previous Version | Text Only | Print | Product List | Glossary On
Versions: 1 2 3 4 5 6 7 8 9 10 11 12 13 14 15 16 17 18 19 20 21 22 23 24 25 26 27 28 29 30 31 32 33 34 35 36 37 38 39 40 41 42 43 44 45 46 47 48 49 50
000
ASUS43 KGRB 261911
RWRGRB

NORTH-CENTRAL AND NORTHEAST WISCONSIN REGIONAL WEATHER ROUNDUP
NATIONAL WEATHER SERVICE GREEN BAY WI
200 PM CDT THU MAY 26 2016

WIZ005-009-010>012-018-019-262000-
NORTH CENTRAL WISCONSIN

CITY           SKY/WX    TMP DP  RH WIND       PRES   REMARKS
IRONWOOD       CLOUDY    61  61 100 E3        29.78F
MANITOWISH WTR NOT AVBL
ARBOR VITAE    MOSUNNY   72  62  71 SW5       29.83R
EAGLE RIVER      N/A     66  61  84 N3        29.83R
LAND O LAKES   PTSUNNY   64  60  87 NE5       29.83F
RHINELANDER    PTSUNNY   68  59  73 S5        29.84R
PHILLIPS       PTSUNNY   72  60  65 W6        29.80S
ANTIGO         MOSUNNY   69  62  80 N3        29.84R
TOMAHAWK       PTSUNNY   70  60  72 CALM      29.83R
MERRILL        MOSUNNY   72  61  68 SW12      29.83S
$$

WIZ013-073-262000-
NORTHEAST WISCONSIN

CITY           SKY/WX    TMP DP  RH WIND       PRES   REMARKS
IRON MOUNTAIN  RAIN      64  59  83 NW16      29.81R
MARINETTE      LGT RAIN  66  64  94 SE3       29.81S FOG
OCONTO         CLOUDY    74  68  79 SW15G21   29.80R
$$

WIZ017-030-035>037-045-262000-
CENTRAL WISCONSIN

CITY           SKY/WX    TMP DP  RH WIND       PRES   REMARKS
MEDFORD        MOSUNNY   70  62  76 W10       29.83S
WAUSAU         MOSUNNY   75  59  57 SW14G20   29.80F
MOSINEE        PTSUNNY   73  63  68 SW12      29.84S
MARSHFIELD     MOSUNNY   75  59  57 W15       29.83S
WISC RAPIDS    MOSUNNY   79  56  45 W14G21    29.84S
STEVENS POINT  MOSUNNY   73  58  57 W13G24    29.83S
WAUPACA        MOSUNNY   79  59  50 SW17G23   29.82F
SHAWANO        PTSUNNY   77  61  58 W14G22    29.81F
CLINTONVILLE   MOSUNNY   75  59  57 SW16      29.82S
WAUTOMA        PTSUNNY   80  61  52 SW12G17   29.83F
$$

WIZ038-039-048-051-262000-
FOX VALLEY

CITY           SKY/WX    TMP DP  RH WIND       PRES   REMARKS
NWS GREEN BAY  MOSUNNY   78  63  59 W16G26    29.80S
APPLETON       PTSUNNY   75  59  57 W23       29.81F
OSHKOSH        SUNNY     79  62  56 W13G20    29.81F
FOND DU LAC    SUNNY     80  61  52 SW14G22   29.83S
$$

WIZ022-050-052-262000-
EAST CENTRAL WISCONSIN

CITY           SKY/WX    TMP DP  RH WIND       PRES   REMARKS
EPHRAIM        FAIR      62  58  87 S12       29.80R
STURGEON BAY   NOT AVBL
MANITOWOC      PTSUNNY   82  58  43 W16G29    29.81F
SHEBOYGAN      SUNNY     81  59  47 SW20G30   29.82F
$$

LMZ563-521-522-541>543-262000-
LAKESHORE

STATION/POSITION TIME  TEMP    WIND        PRES    VSBY  WAVE
                       AIR SEA DIR/SP/G                  HT/PER
                 (UTC) (F)     (DEG/KT/KT) (MB)    (MI)  (FT/S)
SHEBOYGAN LKSHOR 1900   57     170/ 21/ 23 1010.1F
KEWAUNEE LKSHORE 1800   52     130/  3/  5 1009.1F
ALGOMA MARINA    1817          200/  8/ 10   N/A
NORTHPORT PIER   1800   52     140/  9/ 10 1009.1F
N MID LAKE BUOY  1850   49 45  200/ 12/ 16 1009.8S         1/ 3
SISTER BAY LKSHO 1819   70     150/ 13/ 16   N/A
CHAMBERS ISLAND  1800   64      60/  6/  8 1008.8F
MENOMINEE LKSHOR 1800   61      90/  2/  4 1007.8F
$$



USA.gov is the U.S. government's official web portal to all federal, state and local government web resources and services.